Date String (YYYY-MM-DD hh:mm:ss) UTC,Instrument flags,absolute air pressure of the measurement (hPa),sample flow rate (lpm),inlet stack bypass flow (lpm),air temperature of the measurement (°C),ambient temperature measured by the external sensor (°C),aerosol sample conditioner tube jacket temperature (°C),OPC LED temperature (°C),internal box temperature (°C),relative humidity of the measurement (%),span deviation,mass concentration of particles derived from Lorenz-Mie calculation of OPC scattering (μg/m³),mass concentration of particles derived from Lorenz-Mie calculation of OPC scattering (μg/m³),mass concentration of particles derived from Lorenz-Mie calculation of OPC scattering (μg/m³)
DateTimeUTC,F1_M11,P_M11,Q1_M11,Q2_M11,T1_M11,T2_M11,T3_M11,T4_M11,T5_M11,U1_M11,ZSPAN_M11,X2_M11,X0_M11,X1_M11
2024-04-17 16:00:00,SystemResetWarning,0825.3,4.98,000.00,025.5,023.1,000.0,034.5,026.6,014.1,0000.0,0002.71,0006.52,0001.57
2024-04-17 16:01:00,SystemResetWarning,0825.3,4.99,000.00,025.5,023.4,000.0,034.4,026.9,013.9,0000.0,0002.76,0007.83,0001.57
2024-04-17 16:02:00,SystemResetWarning,0825.3,5.01,000.00,025.6,023.8,000.0,034.3,027.1,013.7,0000.0,0002.81,0008.00,0001.60
2024-04-17 16:03:00,SystemResetWarning,0825.3,5.00,000.00,025.6,024.0,000.0,034.3,027.3,014.3,0000.0,0002.86,0008.08,0001.61
2024-04-17 16:04:00,SystemResetWarning,0825.3,4.99,000.00,025.6,024.3,000.0,034.3,027.4,013.7,0000.0,0002.88,0008.27,0001.61
2024-04-17 16:05:00,SystemResetWarning,0825.3,4.99,000.00,025.7,024.5,000.0,034.2,027.4,013.6,0000.0,0002.93,0008.48,0001.62
2024-04-17 16:06:00,SystemResetWarning,0825.4,4.99,000.00,025.7,024.6,000.0,034.2,027.5,013.6,0000.0,0002.93,0008.56,0001.62
2024-04-17 16:07:00,SystemResetWarning,0825.4,5.01,000.00,025.8,024.8,000.0,034.2,027.6,013.3,0000.0,0002.94,0008.58,0001.62
2024-04-17 16:08:00,SystemResetWarning,0825.4,5.01,000.00,025.8,024.9,000.0,034.2,027.6,013.5,0000.0,0002.92,0008.60,0001.61
2024-04-17 16:09:00,SystemResetWarning,0825.4,5.01,000.00,025.8,025.0,000.0,034.2,027.7,013.5,0000.0,0002.90,0008.18,0001.61
2024-04-17 16:10:00,SystemResetWarning,0825.4,4.99,000.00,025.9,025.1,000.0,034.2,027.7,013.4,0000.0,0002.92,0008.34,0001.62
2024-04-17 16:11:00,SystemResetWarning,0825.3,4.99,000.00,025.9,025.1,000.0,034.3,027.8,013.4,0000.0,0002.88,0007.83,0001.62
2024-04-17 16:12:00,SystemResetWarning,0825.3,5.00,000.00,025.9,025.2,000.0,034.3,027.8,013.6,0000.0,0002.90,0008.25,0001.61
2024-04-17 16:13:00,SystemResetWarning,0825.3,4.99,000.00,026.0,025.3,000.0,034.3,027.9,013.6,0000.0,0002.91,0009.21,0001.59
2024-04-17 16:14:00,SystemResetWarning,0825.3,5.01,000.00,026.0,025.3,000.0,034.3,027.9,013.2,0000.0,0002.88,0009.19,0001.59
2024-04-17 16:15:00,SystemResetWarning,0825.3,5.01,000.00,026.0,025.4,000.0,034.3,027.9,013.7,0000.0,0002.71,0008.80,0001.58
2024-04-17 16:16:00,SystemResetWarning,0825.3,4.99,000.00,026.1,025.4,000.0,034.3,028.0,013.4,0000.0,0002.64,0008.53,0001.58
2024-04-17 16:17:00,SystemResetWarning,0825.3,4.99,000.00,026.1,025.5,000.0,034.4,028.0,013.2,0000.0,0002.65,0008.68,0001.58
2024-04-17 16:18:00,SystemResetWarning,0825.4,5.01,000.00,026.1,025.5,000.0,034.4,028.0,013.3,0000.0,0002.66,0009.45,0001.57
2024-04-17 16:19:00,SystemResetWarning,0825.3,5.01,000.00,026.2,025.5,000.0,034.4,028.0,013.1,0000.0,0002.63,0009.40,0001.56
2024-04-17 16:20:00,SystemResetWarning,0825.3,4.99,000.00,026.2,025.4,000.0,034.4,027.9,013.1,0000.0,0002.70,0009.76,0001.55
2024-04-17 16:21:00,SystemResetWarning,0825.3,4.98,000.00,026.0,023.8,000.0,034.5,027.0,013.4,0000.0,0002.66,0009.92,0001.55
2024-04-17 16:22:00,SystemResetWarning,0825.2,5.02,000.00,025.5,022.2,000.0,034.5,026.0,013.6,0000.0,0002.70,0009.98,0001.54
2024-04-17 16:23:00,SystemResetWarning,0825.3,5.00,000.00,025.2,022.2,000.0,034.4,025.9,013.8,0000.0,0002.66,0009.09,0001.54
2024-04-17 16:24:00,SystemResetWarning,0825.3,4.99,000.00,025.2,022.6,000.0,034.2,026.2,014.0,0000.0,0002.57,0008.24,0001.55
2024-04-17 16:25:00,SystemResetWarning,0825.3,5.00,000.00,025.2,023.0,000.0,034.1,026.5,013.8,0000.0,0002.58,0008.96,0001.54
2024-04-17 16:26:00,SystemResetWarning,0825.3,5.00,000.00,025.2,023.3,000.0,034.0,026.7,013.8,0000.0,0002.61,0009.07,0001.53
2024-04-17 16:27:00,SystemResetWarning,0825.3,4.99,000.00,025.2,023.6,000.0,034.0,026.9,013.7,0000.0,0002.64,0009.18,0001.52
2024-04-17 16:28:00,SystemResetWarning,0825.3,5.00,000.00,025.3,023.8,000.0,033.9,027.0,013.7,0000.0,0002.74,0009.26,0001.53
2024-04-17 16:29:00,SystemResetWarning,0825.3,5.00,000.00,025.3,024.1,000.0,033.9,027.1,013.8,0000.0,0002.78,0008.50,0001.53
2024-04-17 16:30:00,SystemResetWarning,0825.3,5.00,000.00,025.4,024.2,000.0,033.9,027.2,013.7,0000.0,0002.78,0008.43,0001.55
2024-04-17 16:31:00,SystemResetWarning,0825.3,5.00,000.00,025.4,024.4,000.0,033.9,027.2,013.6,0000.0,0002.78,0008.79,0001.56
2024-04-17 16:32:00,SystemResetWarning,0825.3,4.99,000.00,025.4,024.5,000.0,033.9,027.3,013.4,0000.0,0002.75,0008.58,0001.55
2024-04-17 16:33:00,SystemResetWarning,0825.3,4.99,000.00,025.5,024.6,000.0,033.9,027.4,013.5,0000.0,0002.66,0008.41,0001.55
2024-04-17 16:34:00,SystemResetWarning,0825.3,5.00,000.00,025.5,024.7,000.0,033.9,027.4,013.4,0000.0,0002.65,0008.28,0001.54
2024-04-17 16:35:00,SystemResetWarning,0825.3,4.99,000.00,025.6,024.8,000.0,033.9,027.5,013.4,0000.0,0002.70,0007.86,0001.53
2024-04-17 16:36:00,SystemResetWarning,0825.3,5.00,000.00,025.6,024.9,000.0,033.9,027.5,013.4,0000.0,0002.76,0007.48,0001.54
2024-04-17 16:37:00,SystemResetWarning,0825.3,5.00,000.00,025.7,025.0,000.0,034.0,027.6,013.5,0000.0,0002.73,0007.40,0001.54
2024-04-17 16:38:00,SystemResetWarning,0825.2,5.00,000.00,025.7,025.0,000.0,034.0,027.6,013.4,0000.0,0002.70,0007.29,0001.54
2024-04-17 16:39:00,SystemResetWarning,0825.3,5.00,000.00,025.8,025.1,000.0,034.0,027.7,013.2,0000.0,0002.52,0007.39,0001.52
2024-04-17 16:40:00,SystemResetWarning,0825.2,5.00,000.00,025.8,025.1,000.0,034.0,027.7,013.2,0000.0,0002.48,0007.32,0001.52
2024-04-17 16:41:00,SystemResetWarning,0825.2,5.00,000.00,025.8,025.2,000.0,034.1,027.8,013.4,0000.0,0002.48,0007.35,0001.50
2024-04-17 16:42:00,SystemResetWarning,0825.3,5.00,000.00,025.9,025.3,000.0,034.1,027.8,013.4,0000.0,0002.43,0006.10,0001.48
2024-04-17 16:43:00,SystemResetWarning,0825.3,5.00,000.00,025.9,025.3,000.0,034.1,027.8,013.3,0000.0,0002.47,0005.70,0001.49
2024-04-17 16:44:00,SystemResetWarning,0825.3,4.99,000.00,026.0,025.4,000.0,034.1,027.9,013.1,0000.0,0002.49,0005.76,0001.48
2024-04-17 16:45:00,SystemResetWarning,0825.3,4.99,000.00,026.0,025.4,000.0,034.2,027.9,013.0,0000.0,0002.46,0005.73,0001.49
2024-04-17 16:46:00,SystemResetWarning,0825.3,5.00,000.00,026.0,025.4,000.0,034.2,027.9,013.1,0000.0,0002.41,0005.59,0001.48
2024-04-17 16:47:00,SystemResetWarning,0825.3,5.01,000.00,026.1,025.4,000.0,034.2,027.9,013.1,0000.0,0002.37,0004.95,0001.48
2024-04-17 16:48:00,SystemResetWarning,0825.2,4.99,000.00,025.9,024.1,000.0,034.3,027.0,013.2,0000.0,0002.42,0005.17,0001.48
2024-04-17 16:49:00,SystemResetWarning,0825.1,5.01,000.00,025.4,022.1,000.0,034.3,025.8,013.6,0000.0,0002.48,0005.46,0001.49
2024-04-17 16:50:00,SystemResetWarning,0825.1,5.01,000.00,025.1,021.8,000.0,034.2,025.6,013.9,0000.0,0002.56,0005.13,0001.50
2024-04-17 16:51:00,SystemResetWarning,0825.1,5.01,000.00,025.0,022.2,000.0,034.1,025.8,014.2,0000.0,0002.57,0005.13,0001.50
2024-04-17 16:52:00,SystemResetWarning,0825.1,5.00,000.00,025.0,022.6,000.0,033.9,026.2,014.1,0000.0,0002.60,0005.17,0001.52
2024-04-17 16:53:00,SystemResetWarning,0825.1,4.99,000.00,025.0,023.0,000.0,033.8,026.5,014.1,0000.0,0002.61,0005.20,0001.53
2024-04-17 16:54:00,SystemResetWarning,0825.1,5.01,000.00,025.0,023.3,000.0,033.8,026.7,013.9,0000.0,0002.59,0005.10,0001.53
2024-04-17 16:55:00,SystemResetWarning,0825.1,5.00,000.00,025.1,023.6,000.0,033.7,026.8,013.9,0000.0,0002.58,0005.11,0001.55
2024-04-17 16:56:00,SystemResetWarning,0825.1,5.00,000.00,025.1,023.9,000.0,033.7,026.9,014.0,0000.0,0002.59,0005.15,0001.54
2024-04-17 16:57:00,SystemResetWarning,0825.1,5.00,000.00,025.2,024.1,000.0,033.7,027.0,013.7,0000.0,0002.57,0005.01,0001.54
2024-04-17 16:58:00,SystemResetWarning,0825.1,5.00,000.00,025.2,024.3,000.0,033.7,027.1,013.6,0000.0,0002.55,0004.89,0001.53
2024-04-17 16:59:00,SystemResetWarning,0825.1,4.99,000.00,025.3,024.4,000.0,033.7,027.2,013.6,0000.0,0002.48,0004.75,0001.52
